This is the latest recevied weather packets stored in our database for station/object N0EDB-13. If no packets are shown the sender has not sent any weather packets the latest 10 day(s).
| Time | Temp. | Humidity | Pressure | Rain* | Wind** | Luminosity | Snow |
|---|---|---|---|---|---|---|---|
| 1777588054 | 11.11° C | 50% | 1505.5 hPa | 0 mm | - | 280 W/m² | - |
| 1777587753 | 11.11° C | 49% | 1505.3 hPa | 0 mm | - | 281 W/m² | - |
| 1777587453 | 11.11° C | 49% | 1505.6 hPa | 0 mm | - | 291 W/m² | - |
| 1777587152 | 11.11° C | 49% | 1505.7 hPa | 0 mm | - | 325 W/m² | - |
| 1777586851 | 11.11° C | 50% | 1506.1 hPa | 0 mm | - | 377 W/m² | - |
| 1777586550 | 10.56° C | 50% | 1506.2 hPa | 0 mm | - | 354 W/m² | - |
| 1777586249 | 10.56° C | 52% | 1506.5 hPa | 0 mm | - | 342 W/m² | - |
| 1777585949 | 11.11° C | 50% | 1506.3 hPa | 0 mm | - | 338 W/m² | - |
| 1777585648 | 10.56° C | 51% | 1506.8 hPa | 0 mm | - | 298 W/m² | - |
| 1777585347 | 10.56° C | 52% | 1507.4 hPa | 0 mm | - | 273 W/m² | - |
| 1777585047 | 10.56° C | 51% | 1507.6 hPa | 0 mm | - | 250 W/m² | - |
| 1777584746 | 10.56° C | 51% | 1507.8 hPa | 0 mm | - | 261 W/m² | - |
| 1777584446 | 10.56° C | 52% | 1507.4 hPa | 0 mm | - | 272 W/m² | - |
| 1777584145 | 10.56° C | 50% | 1507.2 hPa | 0 mm | - | 283 W/m² | - |
| 1777583845 | 10.56° C | 51% | 1507.7 hPa | 0 mm | - | 294 W/m² | - |
| 1777583544 | 10.56° C | 51% | 1507.9 hPa | 0 mm | - | 304 W/m² | - |
| 1777583243 | 10.56° C | 50% | 1507.3 hPa | 0 mm | - | 302 W/m² | - |
| 1777582942 | 10.56° C | 51% | 1507.7 hPa | 0 mm | - | 347 W/m² | - |
| 1777582642 | 10.56° C | 52% | 1507.8 hPa | 0 mm | - | 379 W/m² | - |
| 1777582341 | 10.56° C | 50% | 1507.7 hPa | 0 mm | - | 389 W/m² | - |
| 1777582040 | 10.56° C | 51% | 1508.1 hPa | 0 mm | - | 383 W/m² | - |
| 1777581740 | 10° C | 52% | 1508.7 hPa | 0 mm | - | 359 W/m² | - |
| 1777581439 | 10.56° C | 52% | 1508.4 hPa | 0 mm | - | 344 W/m² | - |
| 1777581138 | 10.56° C | 51% | 1507.7 hPa | 0 mm | - | 368 W/m² | - |
| 1777580837 | 10.56° C | 49% | 1507.1 hPa | 0 mm | - | 406 W/m² | - |
* Rain latest hour (hover to see other rain measurements)
** Current wind speed in m/s (hover to see current wind gust speed)